Home > Weather > Stralsund > Past weeks

Flag for Germany Past Weather in Stralsund, Mecklenburg-Western Pomerania, Germany — Yesterday and Last 2 Weeks

Now
64 °F

Partly sunny.


Feels Like: 64 °F
Forecast: 57 / 70 °F
Wind: 10 mph from Northwest

Location: Laage

Current Time: Jun 28, 2016 at 1:39:29 PM

Latest Report: Jun 28, 2016 at 12:20 PM


Visibility: N/A

Pressure: 30.04 "Hg

Humidity: 64%

Dew Point: 52 °F

Location of StralsundLocation

Past Weather in Stralsund — Graph

°F

Stralsund Temperature Yesterday

Maximum temperature yesterday: 72 °F (at 3:20 PM)
Minimum temperature yesterday: 54 °F (at 2:20 AM)
Average temperature yesterday: 64 °F

High & Low Weather Summary for the Past Weeks

 TemperatureHumidityPressure
High88 °F (Jun 23, 3:20 PM)100% (Jun 15, 12:20 AM)30.24 "Hg (Jun 15, 12:20 AM)
Low46 °F (Jun 20, 5:20 AM)40% (Jun 24, 2:20 PM)29.45 "Hg (Jun 14, 7:20 PM)
Average64 °F77%29.88 "Hg
* Reported Jun 13 12:20 PM — Jun 28 12:20 PM, Stralsund, Weather by CustomWeather, © 2016

Note: Actual official high and low records may vary slightly from our data, if they occured in-between our weather recording intervals... More about our weather records

Advertising

Stralsund Weather History for the Previous 24 Hours

Scroll right to see more
 ConditionsComfort  
Time TempWeatherWind HumidityBarometerVisibility
12:20 PM
Tue, Jun 28
64 °FPartly sunny.10 mph64%30.04 "HgN/A
11:20 AM63 °FBroken clouds.10 mph73%30.04 "HgN/A
10:20 AM64 °FBroken clouds.7 mph64%30.04 "HgN/A
9:20 AM63 °FBroken clouds.8 mph77%30.01 "HgN/A
8:20 AM61 °FBroken clouds.8 mph83%30.01 "HgN/A
7:20 AM59 °FPartly sunny.7 mph94%30.01 "HgN/A
6:20 AM59 °FPartly sunny.7 mph88%30.01 "HgN/A
5:20 AM59 °FPartly cloudy.7 mph94%30.01 "HgN/A
4:20 AM59 °FPartly cloudy.5 mph88%30.01 "HgN/A
3:20 AM59 °FPassing clouds.7 mph88%30.01 "HgN/A
2:20 AM59 °FPartly cloudy.6 mph88%30.01 "HgN/A
1:20 AM61 °FPassing clouds.7 mph94%30.01 "HgN/A
12:20 AM63 °FSprinkles. Partly cloudy.12 mph83%29.98 "HgN/A
11:20 PM
Mon, Jun 27
64 °FPassing clouds.12 mph78%29.98 "HgN/A
10:20 PM66 °FPartly sunny.3 mph68%29.98 "HgN/A
9:20 PM68 °FPartly sunny.5 mph60%29.98 "HgN/A
8:20 PM70 °FPartly sunny.6 mph53%29.98 "HgN/A
7:20 PM70 °FPassing clouds.8 mph50%29.98 "HgN/A
6:20 PM72 °FPassing clouds.9 mph50%29.98 "HgN/A
5:20 PM72 °FScattered clouds.9 mph50%29.98 "HgN/A
4:20 PM72 °FScattered clouds.9 mph47%29.98 "HgN/A
3:20 PM72 °FPassing clouds.9 mph47%29.98 "HgN/A
2:20 PM68 °FScattered clouds.13 mph49%30.01 "HgN/A
1:20 PM68 °FPassing clouds.12 mph53%30.01 "HgN/A
Weather by CustomWeather, © 2016

See weather overviewHow to use our weather pages